Vertical_Velocity
1 -0 -0 1 2 2 3 2 1 1 0 -0 -0 -0 0 1 2 2 2 2 1 1 0 -0 -1 -1 -1 -0 -0 -1 -1 -0 -0 0 1 1 1 2 2 1 1 1 1 1 0 -0 -0 -0 -0 -0 -1 -1 -1 -2 -1 -0 1 1 -0 -1 -1 -2 -2 -1 -2 -1 -1 -0 0
0 -0 -0 1 2 2 2 1 1 0 -0 -1 -1 -0 1 2 2 2 2 2 1 0 -0 -0 -1 -1 -1 -1 -1 -1 -0 -0 0 0 1 1 2 2 2 2 1 1 1 1 0 -0 -0 -0 -0 -1 -1 -2 -2 -2 -1 -0 1 1 -0 -1 -1 -1 -1 -1 -2 -1 -0 0 0
-0 -0 0 1 2 2 2 1 0 -0 -1 -1 -0 1 2 3 3 3 2 2 1 0 -0 -1 -1 -1 -1 -1 -1 -1 -0 -0 0 1 1 2 3 3 3 1 1 1 1 1 0 0 -0 -0 -0 -1 -1 -2 -2 -1 -0 -0 0 0 -0 -1 -1 -1 -1 -1 -1 -0 0 1 0
-0 -0 0 1 2 2 1 0 -0 -1 -1 -1 1 2 3 4 4 3 2 2 1 0 -1 -1 -2 -2 -1 -1 -1 -1 -0 0 1 2 2 3 3 3 2 1 2 1 1 1 0 0 -0 -0 -0 -1 -1 -1 -1 -1 -0 -0 -0 -0 -0 -1 -1 -1 -0 -1 -0 0 0 0 -0
0 0 0 1 1 1 0 -0 -0 -0 -0 0 2 3 4 5 4 4 3 2 1 -1 -1 -2 -2 -2 -2 -1 -1 -1 -0 1 1 2 3 3 3 2 2 2 2 2 1 1 0 -0 -0 -0 -0 -0 -1 -1 -0 -0 -0 -0 -0 -0 -1 -1 -0 0 0 0 0 0 0 0 -0
0 0 1 1 1 1 0 0 0 0 0 2 4 5 5 5 4 3 2 1 -1 -1 -2 -2 -2 -2 -2 -1 -1 -0 0 1 2 2 3 2 2 2 2 2 2 2 1 0 -0 -1 -0 -0 -0 -0 -1 -1 -0 -0 0 1 1 1 0 0 0 1 1 1 0 0 0 -0 -0
0 0 1 1 1 0 0 0 0 1 2 4 5 5 5 4 3 2 1 -1 -1 -1 -2 -2 -2 -2 -1 -1 -1 -0 0 1 2 2 2 2 1 2 2 2 2 1 0 -1 -1 -1 -1 -0 0 -0 -1 -1 -1 -1 -1 1 2 2 2 1 1 1 2 1 0 0 0 0 0
0 1 1 0 -0 -0 -0 1 1 2 3 5 6 6 5 4 2 1 -1 -1 -1 -2 -2 -2 -2 -2 -1 -1 -1 -0 1 2 2 2 1 1 1 1 1 1 1 0 -1 -2 -1 -1 -1 -0 0 -0 -1 -2 -2 -2 -1 -0 1 1 2 2 1 1 1 1 0 0 0 0 -0
1 1 0 -0 -0 -0 0 1 2 4 5 7 7 6 4 3 1 -0 -1 -1 -2 -2 -2 -2 -2 -1 -1 -0 -0 0 1 2 2 1 1 1 1 1 1 1 0 -0 -1 -2 -1 -1 -1 -1 -0 -1 -1 -1 -1 -1 -1 -1 1 1 1 1 1 1 0 0 0 0 -0 -0 -0
0 0 0 -0 0 1 1 2 4 5 7 7 7 5 4 2 1 -0 -1 -2 -2 -2 -2 -2 -1 -1 -0 -0 0 1 2 2 2 1 1 0 1 1 0 -0 -0 -0 -1 -1 -1 -1 -0 -0 -0 -0 -1 -0 -0 -0 -1 0 1 1 1 1 1 0 -0 -0 -0 -0 -0 -1 -0
-0 -0 -0 -0 1 2 3 4 5 6 7 7 6 5 3 1 0 -0 -1 -1 -1 -1 -1 -1 -1 -0 -0 -0 1 1 2 3 2 1 1 0 0 0 -0 -0 -0 -0 -0 -0 -0 0 0 -0 -0 -0 -0 -0 0 1 1 1 1 1 1 0 0 -0 -0 -1 -1 -0 -0 -0 -0
-0 -0 0 1 2 3 4 5 6 7 7 6 5 3 2 1 0 -0 -1 -1 -1 -1 -1 -1 -0 -0 -0 -0 1 2 3 3 2 1 1 0 0 -0 -0 -1 -0 -0 -0 -0 0 1 1 0 -0 0 0 0 1 1 1 1 1 1 0 0 -0 -0 -0 -1 -1 -0 -0 0 0
0 0 1 2 3 4 4 5 5 6 5 4 3 2 1 0 0 -0 -0 -1 -1 -1 -1 -1 -0 -0 -0 1 2 3 3 2 2 1 1 1 0 -0 -1 -1 -1 -0 0 0 1 1 1 0 0 1 1 1 1 1 1 1 1 0 0 -0 -0 -0 -0 -0 -0 -0 -0 0 0
1 1 2 3 4 4 4 4 4 4 4 2 1 0 -0 -0 -0 -0 -0 -0 -0 -0 -0 -1 -1 -0 0 2 3 3 3 2 2 2 2 1 1 0 -0 -1 -0 -0 0 0 1 1 1 1 1 1 1 1 1 1 1 1 1 0 -0 -0 -0 -1 -1 -0 -0 -0 -0 -0 -1
1 2 3 3 4 4 4 4 3 3 2 1 -0 -1 -1 -1 -1 -1 -0 -0 -0 -0 -1 -1 -1 0 2 3 3 3 2 2 2 2 2 2 1 1 0 -0 0 0 1 1 1 1 1 1 1 1 1 1 1 1 1 0 0 -0 -0 -1 -1 -1 -1 -1 -1 -0 -1 -1 -1
2 2 3 4 4 4 3 3 3 2 1 -0 -2 -2 -2 -2 -1 -1 -0 0 -0 -0 -1 -1 -0 1 3 4 3 3 2 2 2 2 2 2 1 1 1 1 0 0 0 0 0 0 1 1 1 1 1 1 1 1 0 -0 -1 -1 -1 -1 -1 -1 -1 -1 -1 -1 -1 -1 -2
2 3 3 3 3 3 3 3 2 2 0 -1 -2 -3 -3 -2 -2 -1 -0 -0 -0 -0 -0 0 1 2 3 4 3 3 2 2 2 2 2 2 1 1 1 1 0 0 0 0 0 0 1 1 2 2 2 1 1 -0 -1 -1 -1 -1 -1 -1 -1 -1 -1 -1 -1 -1 -2 -2 -2
3 3 3 3 3 3 3 3 2 1 -0 -2 -3 -3 -3 -2 -2 -1 -1 -1 -0 0 0 1 1 2 3 4 3 2 2 2 2 2 2 1 1 1 0 0 0 0 0 0 0 1 1 2 2 1 1 0 -0 -1 -1 -1 -2 -2 -1 -1 -1 -1 -2 -2 -2 -2 -2 -2 -2
3 3 3 2 2 3 3 3 2 1 -1 -2 -3 -3 -3 -2 -2 -1 -1 -1 -0 0 1 1 1 2 3 3 2 2 1 1 1 1 1 1 0 0 -0 0 0 0 1 1 1 1 1 1 1 1 0 -0 -1 -1 -1 -1 -2 -2 -2 -2 -2 -2 -2 -2 -2 -2 -2 -1 -1
2 2 2 2 2 2 3 3 2 1 -1 -2 -3 -3 -2 -2 -2 -1 -1 -1 -0 0 0 0 1 2 3 2 2 1 1 1 1 1 0 0 -0 -0 0 0 1 1 1 1 1 1 0 0 0 -0 -1 -1 -1 -1 -1 -2 -2 -2 -2 -2 -2 -2 -2 -2 -2 -2 -2 -1 -1
2 2 1 1 2 2 3 3 2 1 -0 -1 -2 -2 -2 -2 -2 -2 -1 -1 -0 -0 -0 -0 1 2 2 2 1 0 0 0 0 0 -0 -0 -0 0 0 1 1 1 1 0 0 -0 -0 -0 -0 -0 -1 -1 -1 -1 -1 -1 -2 -2 -2 -2 -2 -2 -2 -2 -2 -2 -2 -1 -1
2 1 1 1 1 2 3 3 2 1 0 -0 -0 -1 -1 -2 -2 -1 -1 -0 -0 -1 -1 -1 1 1 1 1 0 0 -0 -0 -0 -0 -0 -1 -0 0 1 1 0 0 -0 -0 -0 -0 -0 -0 -1 -1 -1 -1 -1 -1 -1 -2 -2 -2 -2 -2 -2 -2 -2 -2 -2 -1 -1 -1 -1
2 1 1 0 1 2 3 3 2 2 1 1 0 -1 -1 -2 -1 -1 -0 -0 -1 -1 -1 -1 -0 -0 -0 -0 -0 -0 -1 -1 -1 -1 -1 -0 -0 0 0 0 -0 -1 -1 -1 -1 -1 -1 -1 -1 -1 -1 -1 -1 -1 -2 -2 -2 -2 -2 -3 -2 -2 -2 -1 -1 -1 -1 -0 -0
2 1 1 0 1 2 3 3 3 3 2 1 -0 -1 -2 -2 -1 -0 -0 -1 -1 -2 -2 -2 -1 -1 -1 -1 -1 -1 -1 -1 -1 -1 -0 -0 0 0 0 0 -0 -1 -1 -1 -1 -1 -1 -1 -1 -1 -1 -1 -1 -2 -2 -2 -2 -2 -2 -2 -2 -2 -1 -1 -1 -0 -0 0 -0
2 1 1 1 1 2 2 3 3 3 2 0 -1 -2 -2 -1 -1 -1 -1 -1 -2 -2 -2 -1 -1 -1 -1 -1 -1 -1 -1 -1 -1 -1 -0 0 0 0 0 -0 -1 -1 -1 -1 -1 -1 -1 -1 -1 -1 -1 -1 -2 -2 -2 -2 -2 -2 -2 -2 -1 -1 -1 -1 -0 -0 0 0 -0
2 1 1 0 0 1 2 3 4 3 1 -1 -1 -2 -1 -1 -1 -1 -1 -1 -1 -1 -1 -1 -0 -0 -0 -0 -0 -1 -1 -1 -1 -0 0 1 1 0 0 -0 -0 -1 -1 -1 -1 -2 -2 -1 -1 -1 -1 -2 -2 -2 -2 -2 -2 -2 -1 -1 -1 -0 -0 -0 -0 -0 -0 -0 -0
2 1 0 -0 0 1 2 3 3 2 0 -1 -1 -1 -1 -1 -1 -1 -1 -1 -1 -1 -1 -0 0 0 1 1 0 -0 -0 -0 -0 0 0 1 1 0 0 -0 -0 -1 -1 -1 -1 -1 -1 -1 -1 -1 -1 -2 -2 -2 -2 -2 -1 -1 -0 0 -0 -0 -0 -0 -1 -1 -1 -1 -1
2 1 1 -0 1 1 2 3 2 1 -0 -1 -0 -0 -0 -0 -0 -0 -1 -1 -1 -1 -0 -0 1 1 1 1 1 0 -0 -0 0 0 0 1 0 0 -0 -0 -1 -0 -0 -0 -0 -0 -0 -0 -0 -1 -1 -1 -1 -1 -1 -1 -0 0 1 0 -0 -0 -1 -1 -1 -1 -1 -1 -1
1 1 1 1 1 2 2 2 1 0 -0 0 0 0 1 0 0 -0 -0 -1 -1 -1 -0 0 1 1 1 1 1 0 0 -0 -0 -0 -0 -0 -0 -1 -1 -1 -1 -0 -0 -0 0 1 1 1 -0 -1 -1 -1 -1 -1 -0 0 1 1 1 0 -0 -1 -1 -1 -1 -1 -1 -0 -1
1 1 1 2 3 2 2 1 0 0 1 1 1 1 1 0 0 -0 -0 -1 -1 -1 -0 0 1 1 1 0 0 0 -0 -0 -0 -0 -0 -1 -1 -1 -1 -1 -1 -0 -0 0 1 1 1 0 -0 -0 -1 -1 -0 0 1 1 1 -0 -1 -1 -1 -1 -1 -1 -1 -1 -0 -0 -1
0 1 2 4 4 2 1 0 0 1 1 2 2 1 1 0 -0 -0 -0 -0 -0 -0 -0 0 0 0 0 0 -0 -0 -1 -1 -1 -1 -1 -1 -1 -1 -1 -0 -0 -0 0 1 1 1 1 0 -0 -0 -0 -0 1 1 2 1 -1 -2 -3 -2 -2 -1 -1 -1 -1 -0 -0 -0 -1
-0 0 2 6 5 3 1 -0 0 1 2 2 2 1 0 -0 -0 -0 -0 0 0 0 0 0 0 -0 -0 -0 -0 -1 -1 -1 -1 -1 -1 -1 -1 -1 -0 -0 -0 -0 0 1 1 1 1 0 0 -0 0 1 2 2 0 -2 -3 -3 -3 -2 -1 -1 -1 -1 -0 -0 -0 -0 -1
1 1 2 7 7 4 1 -0 0 1 2 3 2 1 -0 -0 -0 0 0 0 0 0 0 0 -0 -0 -0 -0 -1 -1 -1 -1 -1 -1 -1 -1 -0 -0 -0 -0 -0 -0 0 0 0 1 1 1 0 1 1 2 2 -0 -2 -4 -4 -3 -2 -1 -1 -1 -0 -0 -0 -1 -1 -1 -1
1 1 1 6 6 4 1 -0 -0 1 2 3 2 1 0 0 0 0 0 0 0 0 0 0 -0 -0 -0 -0 -1 -1 -1 -1 -1 -0 -0 -0 0 0 1 1 0 -0 -0 0 0 1 1 1 1 1 1 1 -1 -3 -4 -4 -3 -2 -1 -1 -0 -0 -0 -0 -1 -1 -1 -1 -1
2 0 0 3 4 4 2 0 0 1 2 3 2 2 1 1 0 0 0 0 0 0 0 0 -0 -0 -0 -0 -1 -1 -1 -1 -0 0 0 1 1 1 1 1 1 0 0 0 0 0 0 1 1 0 -1 -2 -3 -3 -3 -3 -2 -1 -1 -0 -0 -0 -1 -1 -1 -1 -1 -2 -1
1 -0 -1 1 2 3 2 1 1 1 2 2 2 2 2 1 0 0 0 1 1 0 0 -0 -1 -1 -1 -1 -1 -0 -0 0 0 0 0 0 1 1 2 2 1 0 0 -0 -0 -0 -0 -0 -1 -1 -2 -3 -3 -3 -2 -2 -1 -1 -0 -0 -0 -0 -1 -1 -1 -1 -2 -2 -2
1 -1 -1 -0 1 2 2 2 2 2 2 2 2 2 2 1 1 1 1 1 1 0 -1 -1 -2 -2 -2 -1 -0 0 0 0 0 -0 -0 1 2 2 2 1 1 0 0 -0 -0 -0 -1 -1 -2 -3 -3 -3 -2 -2 -1 -1 -1 -0 -0 -0 -0 -0 -1 -1 -1 -1 -2 -2 -2
0 -1 -1 -0 0 1 2 3 3 3 2 2 2 2 2 2 1 1 1 1 0 -1 -2 -3 -3 -2 -1 1 1 1 1 0 -0 -0 1 4 5 4 2 1 1 0 0 -0 -0 -1 -1 -2 -3 -3 -3 -2 -2 -1 -1 -1 -1 -0 -0 -0 -0 -0 -1 -1 -1 -1 -1 -2 -1
0 -1 -1 -1 -0 1 2 3 3 3 2 2 1 1 2 3 2 2 1 1 -0 -1 -2 -3 -3 -1 1 3 3 2 1 0 -0 0 2 7 8 6 4 2 1 0 -0 0 -0 -1 -1 -2 -3 -3 -2 -1 -1 -1 -1 -1 -0 -0 -0 -0 -1 -1 -1 -1 -1 -1 -1 -1 -1
0 -0 -1 -1 -0 1 1 2 2 2 3 2 2 2 2 3 3 2 1 0 -1 -1 -2 -3 -2 0 2 4 3 2 1 -0 -0 0 2 6 8 7 4 2 1 -0 -0 -0 -0 -1 -1 -2 -2 -2 -2 -1 -1 -1 -1 -1 -0 -1 -1 -1 -1 -1 -1 -1 -2 -1 -1 -1 -1
0 -0 -0 -1 -0 0 1 2 2 3 3 3 3 2 2 2 3 2 1 -1 -2 -3 -2 -2 -1 1 2 3 2 1 0 -0 -0 -0 1 4 5 5 3 1 0 -0 -1 -1 -1 -1 -1 -1 -1 -1 -1 -1 -1 -1 -1 -1 -1 -1 -1 -1 -1 -1 -1 -2 -2 -1 -1 -1 -1
Height
5715 5717 5719 5721 5723 5725 5728 5730 5732 5733 5735 5737 5739 5740 5742 5744 5746 5748 5750 5752 5754 5756 5758 5759 5761 5762 5763 5765 5766 5768 5769 5770 5772 5773 5774 5776 5777 5778 5779 5780 5780 5781 5781 5782 5782 5782 5783 5783 5783 5783 5783 5783 5783 5783 5783 5783 5783 5783 5783 5782 5781 5781 5780 5779 5779 5778 5778 5777 5776
5713 5716 5718 5720 5722 5724 5727 5729 5731 5733 5734 5736 5738 5739 5741 5743 5745 5747 5749 5751 5753 5755 5756 5758 5759 5761 5762 5763 5765 5766 5768 5769 5770 5772 5773 5775 5776 5777 5778 5778 5779 5779 5780 5780 5781 5781 5781 5782 5782 5782 5782 5782 5781 5782 5782 5782 5782 5781 5781 5780 5780 5779 5778 5778 5777 5777 5776 5775 5774
5713 5715 5717 5719 5721 5723 5726 5728 5730 5731 5733 5734 5736 5738 5740 5742 5744 5746 5748 5750 5752 5754 5755 5757 5758 5759 5761 5762 5763 5764 5766 5767 5769 5770 5772 5774 5775 5776 5776 5777 5778 5778 5778 5779 5779 5780 5780 5780 5780 5780 5780 5780 5780 5780 5780 5780 5780 5780 5779 5779 5778 5778 5777 5776 5775 5775 5774 5773 5772
5712 5714 5716 5718 5720 5723 5725 5727 5728 5730 5732 5733 5735 5737 5739 5741 5743 5745 5748 5749 5751 5753 5754 5755 5757 5758 5759 5760 5762 5763 5764 5766 5768 5769 5771 5773 5774 5774 5775 5776 5776 5777 5777 5778 5778 5778 5778 5779 5779 5779 5778 5778 5778 5779 5778 5778 5778 5778 5778 5777 5776 5776 5775 5774 5773 5773 5772 5771 5770
5711 5713 5715 5717 5719 5721 5723 5725 5727 5729 5730 5732 5734 5736 5738 5740 5743 5745 5747 5748 5750 5751 5753 5754 5755 5756 5758 5759 5760 5762 5763 5765 5767 5768 5770 5771 5772 5773 5774 5774 5775 5776 5776 5776 5777 5777 5777 5777 5777 5777 5777 5777 5777 5777 5777 5777 5777 5776 5776 5775 5774 5774 5773 5773 5772 5771 5770 5769 5768
5710 5712 5714 5716 5718 5720 5722 5724 5726 5728 5729 5731 5733 5736 5738 5740 5742 5744 5746 5747 5748 5750 5751 5752 5753 5755 5756 5758 5759 5760 5762 5764 5765 5767 5768 5770 5771 5772 5773 5773 5774 5774 5774 5775 5775 5775 5776 5776 5776 5776 5776 5776 5776 5776 5775 5775 5775 5774 5774 5773 5773 5772 5771 5771 5770 5769 5768 5768 5767
5709 5712 5713 5716 5718 5719 5721 5723 5724 5726 5728 5730 5733 5735 5737 5739 5741 5743 5744 5746 5747 5748 5750 5751 5752 5753 5755 5756 5758 5759 5761 5763 5764 5766 5767 5768 5769 5770 5771 5772 5772 5773 5773 5773 5773 5774 5774 5774 5774 5774 5774 5774 5774 5774 5773 5773 5773 5773 5773 5772 5771 5770 5770 5769 5768 5768 5767 5766 5766
5709 5711 5713 5715 5717 5718 5720 5722 5723 5725 5728 5730 5732 5734 5737 5738 5740 5742 5743 5744 5746 5747 5748 5750 5751 5752 5754 5755 5757 5758 5760 5762 5763 5764 5766 5767 5768 5769 5769 5770 5771 5771 5771 5772 5772 5772 5773 5773 5773 5773 5773 5772 5772 5772 5772 5772 5771 5771 5770 5770 5769 5768 5768 5767 5766 5766 5765 5765 5764
5708 5710 5712 5714 5716 5718 5719 5721 5723 5725 5727 5729 5732 5734 5736 5738 5739 5740 5742 5743 5745 5746 5747 5748 5750 5751 5753 5754 5755 5757 5759 5760 5762 5763 5764 5765 5766 5767 5768 5768 5769 5770 5770 5770 5771 5771 5771 5771 5771 5771 5771 5771 5771 5771 5770 5770 5770 5769 5768 5768 5768 5767 5766 5765 5765 5764 5764 5763 5763
5708 5709 5711 5713 5715 5717 5718 5720 5722 5724 5727 5729 5731 5733 5735 5737 5738 5739 5741 5742 5743 5745 5746 5747 5748 5750 5751 5753 5754 5756 5758 5759 5760 5762 5763 5763 5765 5766 5766 5767 5768 5768 5769 5769 5769 5770 5770 5770 5770 5770 5769 5769 5769 5769 5769 5768 5768 5768 5767 5766 5766 5765 5764 5764 5763 5763 5763 5762 5761
5707 5709 5710 5712 5714 5716 5718 5720 5722 5724 5726 5728 5730 5732 5734 5735 5737 5738 5740 5741 5742 5743 5745 5746 5747 5749 5750 5751 5753 5755 5756 5758 5759 5760 5761 5762 5763 5764 5765 5766 5766 5767 5767 5768 5768 5768 5768 5768 5768 5768 5768 5768 5768 5768 5767 5767 5766 5766 5765 5765 5764 5764 5763 5763 5762 5762 5761 5760 5760
5706 5708 5709 5712 5713 5716 5718 5719 5722 5723 5726 5728 5729 5731 5733 5734 5736 5737 5738 5740 5741 5742 5743 5745 5746 5747 5748 5750 5752 5753 5755 5756 5758 5758 5759 5760 5761 5762 5763 5764 5764 5765 5766 5766 5766 5767 5767 5767 5767 5767 5767 5766 5766 5766 5766 5765 5765 5764 5764 5763 5763 5763 5762 5762 5761 5760 5759 5759 5758
5705 5707 5709 5711 5713 5715 5717 5719 5721 5723 5725 5727 5728 5730 5731 5733 5734 5736 5737 5738 5740 5741 5742 5743 5745 5746 5747 5749 5750 5752 5753 5755 5756 5757 5758 5759 5760 5761 5761 5762 5763 5763 5764 5764 5764 5765 5765 5765 5765 5765 5765 5765 5765 5764 5764 5764 5763 5763 5763 5762 5762 5761 5761 5760 5759 5758 5758 5757 5756
5704 5706 5708 5710 5712 5714 5717 5719 5721 5723 5725 5726 5728 5729 5730 5732 5733 5734 5736 5737 5738 5740 5741 5742 5743 5744 5746 5748 5749 5751 5752 5753 5754 5755 5757 5758 5758 5759 5759 5760 5761 5762 5762 5762 5763 5763 5763 5763 5763 5763 5763 5763 5763 5763 5763 5763 5762 5762 5761 5761 5760 5760 5759 5758 5758 5757 5756 5755 5755
5703 5705 5708 5710 5712 5714 5716 5718 5721 5723 5724 5726 5727 5728 5729 5730 5732 5733 5734 5736 5737 5738 5739 5740 5742 5743 5745 5747 5748 5749 5751 5752 5753 5754 5755 5756 5757 5757 5758 5758 5759 5760 5760 5761 5761 5761 5761 5762 5762 5762 5762 5762 5762 5762 5761 5761 5761 5760 5760 5759 5759 5758 5758 5757 5756 5755 5755 5754 5753
5703 5705 5707 5709 5711 5713 5716 5718 5720 5722 5723 5725 5726 5727 5728 5729 5730 5732 5733 5734 5735 5737 5738 5739 5740 5742 5744 5745 5747 5748 5749 5751 5752 5753 5754 5755 5755 5756 5757 5757 5758 5758 5758 5759 5759 5759 5760 5760 5760 5761 5761 5761 5761 5760 5760 5760 5759 5759 5758 5758 5757 5757 5756 5755 5755 5754 5753 5752 5752
5703 5704 5707 5708 5711 5713 5715 5717 5719 5721 5723 5724 5725 5726 5727 5728 5729 5731 5732 5733 5734 5735 5737 5738 5740 5741 5743 5745 5746 5748 5749 5750 5751 5752 5753 5753 5754 5755 5755 5756 5756 5757 5757 5758 5758 5758 5759 5759 5759 5759 5759 5759 5759 5759 5758 5758 5758 5757 5757 5756 5756 5755 5754 5754 5753 5752 5752 5751 5750
5702 5704 5706 5708 5710 5712 5714 5717 5718 5720 5722 5723 5724 5725 5726 5727 5728 5730 5731 5732 5733 5735 5736 5738 5739 5741 5743 5744 5746 5747 5748 5749 5750 5751 5752 5752 5753 5753 5754 5754 5755 5755 5756 5756 5757 5757 5758 5758 5758 5758 5758 5758 5758 5757 5757 5757 5756 5756 5755 5755 5754 5753 5753 5752 5752 5751 5750 5749 5748
5701 5703 5705 5707 5709 5712 5714 5716 5718 5719 5721 5722 5723 5724 5725 5727 5728 5729 5730 5732 5733 5734 5736 5737 5739 5741 5743 5744 5745 5746 5747 5748 5749 5750 5750 5751 5752 5752 5753 5753 5753 5754 5754 5755 5755 5756 5756 5756 5757 5756 5756 5756 5756 5756 5755 5755 5755 5754 5754 5753 5753 5752 5751 5751 5750 5749 5748 5748 5747
5701 5703 5705 5707 5709 5711 5713 5715 5717 5719 5720 5721 5723 5724 5725 5726 5728 5729 5730 5731 5733 5734 5735 5737 5738 5740 5742 5743 5744 5745 5746 5747 5748 5748 5749 5750 5750 5751 5751 5752 5752 5753 5753 5754 5754 5755 5755 5755 5755 5755 5755 5755 5754 5754 5754 5754 5753 5753 5752 5752 5751 5751 5750 5749 5749 5748 5747 5746 5745
5700 5703 5704 5707 5709 5711 5713 5715 5716 5718 5719 5721 5722 5723 5724 5726 5727 5728 5730 5731 5732 5734 5735 5737 5738 5740 5741 5742 5743 5744 5745 5746 5747 5747 5748 5748 5749 5750 5750 5751 5751 5752 5752 5753 5753 5753 5753 5754 5754 5753 5753 5753 5753 5753 5753 5752 5752 5751 5751 5750 5750 5749 5748 5748 5747 5747 5746 5745 5744
5700 5702 5704 5706 5708 5710 5712 5714 5716 5718 5719 5720 5722 5723 5724 5725 5726 5728 5729 5730 5732 5733 5734 5736 5738 5739 5740 5741 5742 5743 5744 5745 5745 5746 5747 5747 5748 5748 5749 5749 5750 5750 5751 5751 5752 5752 5752 5752 5752 5752 5752 5752 5752 5752 5751 5751 5751 5750 5750 5749 5748 5748 5747 5747 5746 5745 5744 5743 5743
5699 5701 5703 5706 5708 5710 5712 5714 5716 5717 5718 5720 5721 5722 5723 5724 5726 5727 5728 5730 5731 5732 5734 5735 5737 5738 5739 5740 5741 5742 5743 5744 5744 5745 5746 5746 5747 5747 5748 5748 5749 5749 5750 5750 5750 5751 5751 5751 5751 5751 5751 5751 5751 5750 5750 5750 5749 5749 5748 5748 5747 5746 5746 5745 5744 5743 5743 5742 5741
5699 5701 5703 5705 5707 5710 5712 5713 5715 5717 5718 5719 5720 5721 5722 5723 5725 5726 5728 5729 5730 5732 5733 5734 5736 5737 5738 5739 5740 5741 5742 5743 5743 5744 5744 5745 5746 5746 5747 5747 5748 5748 5748 5749 5749 5749 5749 5749 5749 5750 5749 5749 5749 5749 5749 5748 5748 5748 5747 5746 5746 5745 5744 5743 5743 5742 5741 5740 5739
5699 5700 5703 5705 5707 5709 5711 5713 5715 5717 5718 5718 5719 5720 5721 5723 5724 5725 5727 5728 5729 5731 5732 5733 5735 5736 5737 5738 5739 5740 5741 5741 5742 5743 5743 5744 5744 5745 5746 5746 5747 5747 5748 5748 5748 5748 5748 5748 5748 5748 5748 5748 5748 5748 5748 5747 5747 5746 5746 5745 5744 5743 5743 5742 5741 5740 5740 5739 5738
5698 5700 5702 5704 5707 5709 5711 5713 5715 5716 5717 5718 5718 5719 5721 5722 5723 5725 5726 5727 5728 5730 5731 5733 5734 5735 5736 5737 5738 5739 5739 5740 5741 5742 5742 5743 5743 5744 5745 5745 5746 5746 5746 5747 5747 5747 5747 5747 5747 5747 5747 5747 5747 5747 5746 5746 5745 5745 5744 5743 5743 5742 5742 5741 5740 5739 5738 5737 5736
5698 5700 5702 5704 5706 5708 5711 5713 5714 5715 5716 5717 5718 5719 5720 5721 5723 5724 5725 5726 5728 5729 5730 5732 5733 5734 5735 5736 5737 5738 5738 5739 5740 5740 5741 5742 5743 5743 5744 5744 5745 5745 5745 5746 5746 5746 5746 5746 5746 5746 5746 5745 5745 5745 5745 5744 5744 5743 5743 5742 5741 5741 5740 5739 5738 5738 5737 5736 5735
5697 5699 5701 5703 5706 5708 5710 5712 5713 5714 5715 5716 5717 5718 5719 5720 5722 5723 5724 5725 5727 5728 5729 5731 5732 5733 5734 5735 5736 5736 5737 5738 5738 5739 5740 5741 5742 5743 5743 5743 5744 5744 5744 5745 5745 5745 5745 5745 5745 5745 5744 5744 5744 5744 5743 5743 5743 5742 5741 5741 5740 5739 5738 5738 5737 5736 5735 5735 5734
5697 5699 5701 5703 5706 5708 5710 5711 5712 5713 5714 5715 5717 5718 5718 5719 5721 5722 5723 5724 5726 5727 5728 5729 5731 5732 5733 5734 5734 5735 5736 5737 5738 5738 5739 5740 5741 5742 5742 5743 5743 5743 5743 5743 5743 5743 5743 5743 5743 5743 5743 5743 5743 5743 5742 5742 5741 5741 5740 5739 5739 5738 5737 5736 5736 5735 5734 5733 5733
5696 5698 5701 5703 5705 5707 5709 5710 5711 5713 5714 5715 5716 5717 5718 5719 5720 5721 5722 5723 5725 5726 5727 5728 5729 5731 5732 5733 5733 5734 5735 5736 5737 5738 5738 5739 5740 5740 5741 5741 5742 5742 5742 5742 5742 5743 5743 5743 5743 5743 5742 5742 5742 5741 5741 5740 5740 5740 5739 5738 5737 5737 5736 5735 5734 5734 5733 5732 5731
5695 5698 5700 5703 5705 5706 5708 5709 5710 5712 5713 5714 5715 5716 5717 5718 5719 5720 5721 5723 5723 5725 5726 5727 5728 5729 5730 5732 5733 5733 5734 5735 5736 5737 5738 5738 5739 5739 5740 5740 5740 5741 5741 5741 5741 5741 5741 5741 5741 5741 5741 5741 5740 5740 5739 5739 5739 5738 5738 5737 5736 5735 5734 5734 5733 5732 5732 5730 5729
5695 5697 5699 5702 5704 5705 5707 5708 5709 5711 5712 5713 5714 5715 5716 5717 5718 5719 5720 5721 5723 5724 5725 5726 5727 5728 5729 5730 5731 5732 5733 5734 5735 5736 5737 5737 5738 5738 5739 5739 5739 5739 5740 5740 5740 5740 5740 5740 5740 5740 5740 5739 5739 5738 5738 5738 5738 5737 5736 5735 5734 5734 5733 5732 5732 5731 5730 5729 5728
5694 5696 5699 5701 5703 5704 5706 5707 5708 5710 5711 5713 5713 5714 5715 5716 5718 5718 5719 5720 5722 5723 5724 5725 5726 5728 5728 5730 5731 5732 5733 5733 5734 5735 5736 5736 5737 5737 5738 5738 5738 5738 5738 5739 5739 5739 5739 5739 5739 5739 5738 5738 5738 5737 5737 5737 5736 5735 5734 5733 5733 5732 5732 5731 5730 5729 5728 5727 5726
5694 5696 5698 5700 5702 5703 5704 5706 5708 5709 5710 5712 5713 5713 5714 5715 5717 5718 5718 5720 5721 5722 5723 5724 5725 5727 5728 5729 5730 5731 5732 5733 5733 5734 5735 5735 5736 5736 5737 5737 5737 5737 5738 5738 5738 5738 5738 5738 5738 5738 5737 5737 5736 5736 5736 5735 5734 5734 5733 5732 5731 5731 5730 5729 5728 5728 5727 5726 5725
5693 5695 5697 5698 5700 5702 5703 5705 5707 5708 5709 5711 5712 5713 5713 5714 5716 5717 5718 5719 5720 5721 5722 5723 5724 5726 5727 5728 5729 5730 5731 5732 5733 5733 5734 5734 5735 5735 5736 5736 5736 5736 5736 5736 5736 5736 5737 5736 5736 5736 5736 5735 5735 5735 5734 5734 5733 5732 5732 5731 5730 5729 5728 5728 5727 5726 5725 5724 5723
5692 5694 5695 5697 5699 5701 5702 5704 5705 5707 5708 5709 5710 5711 5712 5713 5715 5716 5717 5718 5719 5720 5722 5723 5724 5725 5726 5727 5728 5729 5730 5731 5732 5732 5733 5733 5734 5734 5735 5735 5735 5735 5735 5735 5735 5735 5735 5735 5735 5734 5734 5734 5733 5733 5733 5732 5732 5731 5730 5729 5728 5728 5727 5726 5725 5724 5724 5723 5722
5691 5693 5694 5696 5698 5699 5701 5703 5704 5705 5707 5708 5709 5710 5711 5713 5714 5715 5716 5717 5718 5720 5721 5722 5723 5724 5725 5727 5728 5728 5729 5730 5731 5731 5732 5733 5733 5733 5734 5734 5734 5734 5734 5734 5734 5734 5734 5734 5733 5733 5733 5733 5732 5732 5731 5731 5730 5729 5729 5728 5727 5726 5726 5725 5724 5723 5722 5722 5721
5690 5692 5693 5694 5696 5698 5700 5701 5703 5704 5705 5707 5708 5709 5710 5712 5713 5714 5715 5716 5718 5719 5720 5721 5723 5723 5725 5726 5727 5728 5729 5729 5730 5731 5731 5732 5732 5733 5733 5733 5733 5733 5733 5733 5733 5733 5733 5733 5732 5732 5732 5731 5731 5730 5730 5729 5729 5728 5728 5727 5726 5725 5724 5723 5723 5722 5721 5721 5720
5689 5691 5692 5693 5695 5697 5698 5700 5701 5703 5704 5706 5707 5708 5709 5711 5712 5713 5714 5715 5716 5718 5719 5721 5722 5723 5724 5725 5726 5727 5728 5728 5729 5730 5730 5731 5731 5731 5732 5732 5732 5732 5732 5732 5732 5732 5732 5731 5731 5731 5730 5730 5729 5729 5729 5728 5728 5727 5726 5725 5724 5724 5723 5722 5722 5721 5720 5719 5719
5688 5690 5691 5692 5694 5695 5697 5698 5700 5702 5703 5705 5706 5708 5709 5710 5711 5712 5713 5714 5715 5717 5718 5720 5721 5722 5723 5724 5725 5726 5727 5728 5728 5729 5729 5729 5730 5730 5730 5730 5731 5731 5731 5731 5731 5730 5730 5730 5730 5730 5729 5729 5728 5728 5728 5727 5726 5726 5725 5724 5723 5723 5722 5721 5720 5720 5719 5718 5718
5687 5688 5690 5691 5693 5694 5696 5697 5699 5701 5702 5704 5705 5707 5708 5709 5710 5711 5712 5713 5714 5716 5717 5718 5720 5721 5723 5723 5724 5725 5726 5727 5727 5728 5728 5728 5728 5729 5729 5729 5729 5729 5729 5729 5729 5729 5729 5729 5729 5728 5728 5728 5727 5727 5726 5726 5725 5724 5723 5723 5722 5721 5721 5720 5719 5719 5718 5718 5717